^^

..:: Storico WU ::..




Lo storico viene creato da WUnderground con i dati che la stazione Meteomincio invia al loro server. L' aggiornamento viene fatto ogni 5 minuti circa, tuttavia possono esserci intervalli pił ampi a causa di errori, interruzioni di servizio o problemi nell' invio tramite FTP.


Storico stazione MeteoMincio
Giorno Sommario per Gennaio 17, 2022 Unità:  Inglese    Metrico   Entrambi
Giorno Settimana Mese Anno
  Max: Min: Media:
Temperatura: 53.6 °F 26.6 °F 38.1 °F
Dew Point: 42.8 °F 26.6 °F 33.6 °F
Umidità: 97% 64% 85%
Velocità vento: 8.7mph 0mph 4.2mph
Raffica: 11.8mph - -
Direzione- - WSW
Pressione: 30.4 in 30.2 in -
Precipitazioni: 0 in    
 
 
Tabulato Dati per Gennaio 17, 2022
Ora Temperatura Dew Point Pressione Direzione Velocità vento Raffica Umidità Intensità pioggia (oraria) Info solare Situazione
00:04 33.8 °F 32 °F 30.3 in WSW 3.1 mph 3.7 mph 93% 0 in 0.00 W/m2 unknown
00:09 33.8 °F 32 °F 30.3 in West 5 mph 6.2 mph 93% 0 in 0.00 W/m2 unknown
00:14 33.8 °F 32 °F 30.3 in NNW 5 mph 6.2 mph 94% 0 in 0.00 W/m2 unknown
00:19 33.8 °F 32 °F 30.3 in NNW 1.9 mph 6.2 mph 94% 0 in 0.00 W/m2 unknown
00:24 33.8 °F 32 °F 30.3 in NNW 0.6 mph 1.9 mph 94% 0 in 0.00 W/m2 unknown
00:29 33.8 °F 32 °F 30.3 in NW 1.2 mph 2.5 mph 94% 0 in 0.00 W/m2 unknown
00:34 33.8 °F 32 °F 30.3 in NNW 1.9 mph 2.5 mph 94% 0 in 0.00 W/m2 unknown
00:39 33.8 °F 32 °F 30.3 in North 1.9 mph 2.5 mph 94% 0 in 0.00 W/m2 unknown
00:44 33.8 °F 32 °F 30.3 in NNW 1.2 mph 2.5 mph 94% 0 in 0.00 W/m2 unknown
00:49 32 °F 32 °F 30.3 in NW 1.9 mph 2.5 mph 94% 0 in 0.00 W/m2 unknown
00:54 32 °F 30.2 °F 30.3 in North 1.9 mph 3.1 mph 95% 0 in 0.00 W/m2 unknown
00:59 32 °F 32 °F 30.3 in NE 3.1 mph 3.7 mph 95% 0 in 0.00 W/m2 unknown
01:04 32 °F 32 °F 30.3 in ENE 2.5 mph 3.7 mph 95% 0 in 0.00 W/m2 unknown
01:09 32 °F 30.2 °F 30.3 in ESE 3.1 mph 3.7 mph 94% 0 in 0.00 W/m2 unknown
01:14 32 °F 30.2 °F 30.3 in SE 3.1 mph 3.7 mph 95% 0 in 0.00 W/m2 unknown
01:19 32 °F 30.2 °F 30.3 in East 5 mph 6.2 mph 95% 0 in 0.00 W/m2 unknown
01:24 32 °F 30.2 °F 30.3 in ENE 5 mph 6.2 mph 95% 0 in 0.00 W/m2 unknown
01:29 32 °F 30.2 °F 30.3 in ENE 2.5 mph 6.2 mph 95% 0 in 0.00 W/m2 unknown
01:34 32 °F 30.2 °F 30.3 in ENE 2.5 mph 3.7 mph 95% 0 in 0.00 W/m2 unknown
01:39 30.2 °F 30.2 °F 30.3 in West 2.5 mph 3.7 mph 95% 0 in 0.00 W/m2 unknown
01:44 32 °F 30.2 °F 30.3 in WNW 1.9 mph 3.7 mph 96% 0 in 0.00 W/m2 unknown
01:49 32 °F 30.2 °F 30.3 in WNW 1.2 mph 3.1 mph 96% 0 in 0.00 W/m2 unknown
01:54 32 °F 30.2 °F 30.3 in Calm   1.2 mph 96% 0 in 0.00 W/m2 unknown
01:59 32 °F 30.2 °F 30.3 in ENE 1.9 mph 3.7 mph 96% 0 in 0.00 W/m2 unknown
02:04 32 °F 30.2 °F 30.3 in ENE 1.9 mph 3.1 mph 96% 0 in 0.00 W/m2 unknown
02:09 30.2 °F 30.2 °F 30.3 in NW 3.1 mph 3.7 mph 95% 0 in 0.00 W/m2 unknown
02:14 30.2 °F 28.4 °F 30.3 in West 3.1 mph 3.7 mph 95% 0 in 0.00 W/m2 unknown
02:19 30.2 °F 28.4 °F 30.3 in WSW 1.2 mph 3.1 mph 96% 0 in 0.00 W/m2 unknown
02:24 30.2 °F 28.4 °F 30.3 in South 2.5 mph 3.7 mph 96% 0 in 0.00 W/m2 unknown
02:29 30.2 °F 30.2 °F 30.3 in SSW 3.7 mph 3.7 mph 96% 0 in 0.00 W/m2 unknown
02:34 30.2 °F 28.4 °F 30.3 in WSW 3.1 mph 3.7 mph 96% 0 in 0.00 W/m2 unknown
02:39 30.2 °F 30.2 °F 30.3 in West 3.1 mph 3.7 mph 96% 0 in 0.00 W/m2 unknown
02:44 30.2 °F 30.2 °F 30.3 in West 2.5 mph 3.7 mph 96% 0 in 0.00 W/m2 unknown
02:49 30.2 °F 30.2 °F 30.3 in West 0.6 mph 3.1 mph 96% 0 in 0.00 W/m2 unknown
02:54 30.2 °F 30.2 °F 30.3 in West 2.5 mph 3.7 mph 96% 0 in 0.00 W/m2 unknown
02:59 30.2 °F 30.2 °F 30.3 in West 1.9 mph 3.7 mph 96% 0 in 0.00 W/m2 unknown
03:04 30.2 °F 28.4 °F 30.3 in Calm   3.1 mph 96% 0 in 0.00 W/m2 unknown
03:09 30.2 °F 28.4 °F 30.3 in Calm   1.2 mph 96% 0 in 0.00 W/m2 unknown
03:14 30.2 °F 28.4 °F 30.3 in West 2.5 mph 3.7 mph 96% 0 in 0.00 W/m2 unknown
03:19 30.2 °F 28.4 °F 30.3 in West 3.1 mph 3.7 mph 96% 0 in 0.00 W/m2 unknown
03:24 30.2 °F 28.4 °F 30.3 in West 5 mph 6.2 mph 96% 0 in 0.00 W/m2 unknown
03:29 30.2 °F 28.4 °F 30.3 in West 5 mph 6.2 mph 96% 0 in 0.00 W/m2 unknown
03:34 30.2 °F 28.4 °F 30.3 in NNE 5 mph 8.1 mph 96% 0 in 0.00 W/m2 unknown
03:39 30.2 °F 28.4 °F 30.3 in ENE 5 mph 8.1 mph 96% 0 in 0.00 W/m2 unknown
03:44 30.2 °F 28.4 °F 30.3 in East 1.9 mph 5 mph 96% 0 in 0.00 W/m2 unknown
03:49 28.4 °F 28.4 °F 30.3 in South 1.9 mph 3.7 mph 96% 0 in 0.00 W/m2 unknown
03:54 28.4 °F 28.4 °F 30.3 in WSW 3.7 mph 3.7 mph 96% 0 in 0.00 W/m2 unknown
03:59 28.4 °F 28.4 °F 30.3 in West 3.7 mph 3.7 mph 96% 0 in 0.00 W/m2 unknown
04:04 28.4 °F 28.4 °F 30.3 in WSW 2.5 mph 3.7 mph 96% 0 in 0.00 W/m2 unknown
04:09 28.4 °F 28.4 °F 30.3 in WSW 1.9 mph 3.1 mph 96% 0 in 0.00 W/m2 unknown
04:14 28.4 °F 28.4 °F 30.3 in SW 1.9 mph 3.7 mph 96% 0 in 0.00 W/m2 unknown
04:19 28.4 °F 28.4 °F 30.3 in SSE 1.9 mph 3.7 mph 96% 0 in 0.00 W/m2 unknown
04:24 28.4 °F 28.4 °F 30.3 in South 1.9 mph 3.7 mph 96% 0 in 0.00 W/m2 unknown
04:29 28.4 °F 28.4 °F 30.3 in SSW 2.5 mph 3.7 mph 96% 0 in 0.00 W/m2 unknown
04:34 28.4 °F 28.4 °F 30.3 in SW 1.9 mph 3.7 mph 96% 0 in 0.00 W/m2 unknown
04:39 28.4 °F 28.4 °F 30.3 in WNW 1.9 mph 3.7 mph 96% 0 in 0.00 W/m2 unknown
04:44 28.4 °F 28.4 °F 30.3 in NW 1.9 mph 3.1 mph 96% 0 in 0.00 W/m2 unknown
04:49 28.4 °F 28.4 °F 30.3 in NW 1.9 mph 3.7 mph 96% 0 in 0.00 W/m2 unknown
04:54 28.4 °F 28.4 °F 30.3 in North 2.5 mph 3.7 mph 96% 0 in 0.00 W/m2 unknown
04:59 28.4 °F 28.4 °F 30.3 in West 2.5 mph 3.7 mph 96% 0 in 0.00 W/m2 unknown
05:04 28.4 °F 28.4 °F 30.3 in North 1.2 mph 3.7 mph 96% 0 in 0.00 W/m2 unknown
05:09 28.4 °F 28.4 °F 30.3 in NNE 1.2 mph 1.9 mph 96% 0 in 0.00 W/m2 unknown
05:14 28.4 °F 28.4 °F 30.3 in East 1.9 mph 2.5 mph 96% 0 in 0.00 W/m2 unknown
05:19 28.4 °F 26.6 °F 30.3 in SW 1.9 mph 2.5 mph 96% 0 in 0.00 W/m2 unknown
05:24 28.4 °F 26.6 °F 30.3 in SW 2.5 mph 3.7 mph 95% 0 in 0.00 W/m2 unknown
05:29 28.4 °F 26.6 °F 30.3 in SW 3.1 mph 3.7 mph 95% 0 in 0.00 W/m2 unknown
05:34 26.6 °F 26.6 °F 30.3 in WSW 3.7 mph 5 mph 95% 0 in 0.00 W/m2 unknown
05:39 28.4 °F 26.6 °F 30.3 in West 3.1 mph 5 mph 96% 0 in 0.00 W/m2 unknown
05:44 28.4 °F 26.6 °F 30.3 in NW 1.2 mph 3.1 mph 96% 0 in 0.00 W/m2 unknown
05:49 28.4 °F 26.6 °F 30.3 in NNE 1.9 mph 3.1 mph 96% 0 in 0.00 W/m2 unknown
05:54 28.4 °F 26.6 °F 30.3 in ESE 2.5 mph 3.7 mph 96% 0 in 0.00 W/m2 unknown
05:59 28.4 °F 26.6 °F 30.3 in South 2.5 mph 3.7 mph 96% 0 in 0.00 W/m2 unknown
06:04 28.4 °F 26.6 °F 30.3 in South 2.5 mph 3.7 mph 96% 0 in 0.00 W/m2 unknown
06:09 28.4 °F 26.6 °F 30.3 in SSW 3.1 mph 3.7 mph 96% 0 in 0.00 W/m2 unknown
06:14 28.4 °F 28.4 °F 30.3 in SW 3.7 mph 4.3 mph 96% 0 in 0.00 W/m2 unknown
06:19 28.4 °F 28.4 °F 30.3 in WSW 3.7 mph 5 mph 96% 0 in 0.00 W/m2 unknown
06:24 28.4 °F 26.6 °F 30.3 in West 3.7 mph 3.7 mph 96% 0 in 0.00 W/m2 unknown
06:29 28.4 °F 26.6 °F 30.3 in West 2.5 mph 3.7 mph 96% 0 in 0.00 W/m2 unknown
06:34 28.4 °F 26.6 °F 30.3 in West 3.1 mph 3.7 mph 96% 0 in 0.00 W/m2 unknown
06:39 28.4 °F 26.6 °F 30.3 in West 5 mph 6.2 mph 97% 0 in 0.00 W/m2 unknown
06:44 28.4 °F 26.6 °F 30.3 in West 5 mph 6.2 mph 96% 0 in 0.00 W/m2 unknown
06:49 28.4 °F 28.4 °F 30.3 in West 3.1 mph 3.7 mph 97% 0 in 0.00 W/m2 unknown
06:54 28.4 °F 28.4 °F 30.3 in WSW 3.1 mph 3.7 mph 97% 0 in 0.00 W/m2 unknown
06:59 28.4 °F 28.4 °F 30.3 in WSW 3.1 mph 3.7 mph 97% 0 in 0.00 W/m2 unknown
07:04 28.4 °F 28.4 °F 30.3 in WNW 1.2 mph 3.1 mph 97% 0 in 0.00 W/m2 unknown
07:09 28.4 °F 28.4 °F 30.3 in WNW 1.2 mph 2.5 mph 97% 0 in 0.00 W/m2 unknown
07:14 28.4 °F 28.4 °F 30.3 in SE 0.6 mph 3.1 mph 97% 0 in 0.00 W/m2 unknown
07:19 28.4 °F 26.6 °F 30.3 in SE 3.1 mph 3.7 mph 96% 0 in 0.00 W/m2 unknown
07:24 28.4 °F 26.6 °F 30.3 in ESE 2.5 mph 3.7 mph 96% 0 in 0.00 W/m2 unknown
07:29 28.4 °F 26.6 °F 30.3 in ESE 1.9 mph 3.7 mph 96% 0 in 0.00 W/m2 unknown
07:34 28.4 °F 26.6 °F 30.3 in ESE 1.2 mph 1.9 mph 96% 0 in 0.00 W/m2 unknown
07:39 28.4 °F 26.6 °F 30.3 in ESE 1.9 mph 2.5 mph 96% 0 in 0.00 W/m2 unknown
07:44 28.4 °F 26.6 °F 30.3 in ESE 1.2 mph 2.5 mph 96% 0 in 0.00 W/m2 unknown
07:49 28.4 °F 26.6 °F 30.3 in ESE 1.2 mph 1.9 mph 96% 0 in 0.00 W/m2 unknown
07:54 28.4 °F 26.6 °F 30.3 in SE 1.2 mph 2.5 mph 96% 0 in 5.00 W/m2 unknown
07:59 28.4 °F 26.6 °F 30.3 in SE 1.2 mph 2.5 mph 96% 0 in 5.00 W/m2 unknown
08:04 28.4 °F 26.6 °F 30.3 in SW 5 mph 6.2 mph 96% 0 in 9.00 W/m2 unknown
08:09 28.4 °F 26.6 °F 30.3 in SSW 5 mph 6.2 mph 96% 0 in 12.00 W/m2 unknown
08:14 28.4 °F 26.6 °F 30.3 in SW 3.7 mph 6.2 mph 96% 0 in 14.00 W/m2 unknown
08:19 28.4 °F 26.6 °F 30.3 in SW 3.7 mph 5 mph 96% 0 in 16.00 W/m2 unknown
08:24 28.4 °F 26.6 °F 30.3 in SW 3.7 mph 5 mph 96% 0 in 19.00 W/m2 unknown
08:29 28.4 °F 26.6 °F 30.3 in WSW 1.9 mph 5 mph 96% 0 in 23.00 W/m2 unknown
08:34 28.4 °F 26.6 °F 30.3 in West 1.9 mph 3.7 mph 96% 0 in 25.00 W/m2 unknown
08:39 28.4 °F 26.6 °F 30.3 in West 1.9 mph 3.1 mph 96% 0 in 28.00 W/m2 unknown
08:44 28.4 °F 26.6 °F 30.3 in WSW 2.5 mph 3.7 mph 96% 0 in 30.00 W/m2 unknown
08:49 28.4 °F 26.6 °F 30.4 in WSW 3.1 mph 3.7 mph 96% 0 in 33.00 W/m2 unknown
08:54 28.4 °F 28.4 °F 30.4 in WSW 2.5 mph 3.7 mph 96% 0 in 33.00 W/m2 unknown
08:59 30.2 °F 28.4 °F 30.3 in WSW 2.5 mph 3.7 mph 96% 0 in 35.00 W/m2 unknown
09:04 30.2 °F 28.4 °F 30.3 in WSW 2.5 mph 3.7 mph 96% 0 in 67.00 W/m2 unknown
09:09 30.2 °F 30.2 °F 30.3 in West 3.1 mph 3.7 mph 96% 0 in 120.00 W/m2 unknown
09:14 32 °F 30.2 °F 30.3 in WSW 3.1 mph 3.7 mph 95% 0 in 132.00 W/m2 unknown
09:19 32 °F 30.2 °F 30.3 in WSW 3.7 mph 5 mph 95% 0 in 146.00 W/m2 unknown
09:24 32 °F 30.2 °F 30.3 in West 4.3 mph 6.2 mph 94% 0 in 160.00 W/m2 unknown
09:29 32 °F 30.2 °F 30.3 in WSW 3.1 mph 6.2 mph 94% 0 in 172.00 W/m2 unknown
09:34 32 °F 32 °F 30.3 in WSW 4.3 mph 5 mph 94% 0 in 188.00 W/m2 unknown
09:39 33.8 °F 32 °F 30.3 in WSW 4.3 mph 5 mph 94% 0 in 200.00 W/m2 unknown
09:44 33.8 °F 32 °F 30.3 in WSW 5 mph 5 mph 94% 0 in 206.00 W/m2 unknown
09:49 33.8 °F 32 °F 30.3 in SW 4.3 mph 6.2 mph 93% 0 in 211.00 W/m2 unknown
09:54 35.6 °F 32 °F 30.3 in WSW 3.7 mph 6.2 mph 92% 0 in 223.00 W/m2 unknown
09:59 35.6 °F 33.8 °F 30.3 in WSW 5.6 mph 6.8 mph 92% 0 in 229.00 W/m2 unknown
10:04 35.6 °F 33.8 °F 30.3 in WSW 5 mph 6.8 mph 92% 0 in 237.00 W/m2 unknown
10:09 35.6 °F 33.8 °F 30.3 in WSW 5 mph 6.8 mph 92% 0 in 246.00 W/m2 unknown
10:14 35.6 °F 33.8 °F 30.3 in WSW 3.7 mph 6.2 mph 91% 0 in 257.00 W/m2 unknown
10:19 35.6 °F 33.8 °F 30.3 in WSW 3.7 mph 6.2 mph 91% 0 in 267.00 W/m2 unknown
10:24 37.4 °F 33.8 °F 30.4 in West 5 mph 6.2 mph 91% 0 in 274.00 W/m2 unknown
10:29 37.4 °F 33.8 °F 30.4 in West 5 mph 6.2 mph 90% 0 in 283.00 W/m2 unknown
10:34 37.4 °F 35.6 °F 30.4 in WSW 4.3 mph 6.2 mph 89% 0 in 288.00 W/m2 unknown
10:39 39.2 °F 35.6 °F 30.4 in West 5.6 mph 6.8 mph 89% 0 in 297.00 W/m2 unknown
10:44 39.2 °F 35.6 °F 30.4 in West 6.2 mph 6.8 mph 88% 0 in 306.00 W/m2 unknown
10:49 39.2 °F 35.6 °F 30.4 in West 6.2 mph 6.8 mph 87% 0 in 316.00 W/m2 unknown
10:54 39.2 °F 35.6 °F 30.4 in WSW 5.6 mph 6.8 mph 88% 0 in 325.00 W/m2 unknown
10:59 39.2 °F 35.6 °F 30.4 in West 6.2 mph 6.8 mph 87% 0 in 332.00 W/m2 unknown
11:04 41 °F 37.4 °F 30.4 in WSW 6.8 mph 8.1 mph 86% 0 in 339.00 W/m2 unknown
11:09 41 °F 35.6 °F 30.3 in West 6.8 mph 9.3 mph 85% 0 in 348.00 W/m2 unknown
11:14 41 °F 37.4 °F 30.3 in West 6.2 mph 8.7 mph 85% 0 in 355.00 W/m2 unknown
11:19 41 °F 37.4 °F 30.3 in West 6.8 mph 9.3 mph 84% 0 in 360.00 W/m2 unknown
11:24 42.8 °F 37.4 °F 30.3 in West 6.8 mph 9.3 mph 84% 0 in 369.00 W/m2 unknown
11:29 42.8 °F 37.4 °F 30.3 in West 6.8 mph 9.3 mph 84% 0 in 373.00 W/m2 unknown
11:34 42.8 °F 37.4 °F 30.3 in WSW 7.5 mph 10.6 mph 83% 0 in 378.00 W/m2 unknown
11:39 42.8 °F 37.4 °F 30.3 in West 6.8 mph 9.9 mph 82% 0 in 385.00 W/m2 unknown
11:44 42.8 °F 37.4 °F 30.3 in West 6.2 mph 6.8 mph 81% 0 in 388.00 W/m2 unknown
11:49 44.6 °F 39.2 °F 30.3 in WSW 5 mph 6.2 mph 81% 0 in 394.00 W/m2 unknown
11:54 44.6 °F 39.2 °F 30.3 in West 6.2 mph 8.1 mph 81% 0 in 410.00 W/m2 unknown
11:59 44.6 °F 39.2 °F 30.3 in WNW 6.8 mph 8.7 mph 79% 0 in 424.00 W/m2 unknown
12:04 44.6 °F 39.2 °F 30.3 in West 6.8 mph 9.3 mph 78% 0 in 427.00 W/m2 unknown
12:09 46.4 °F 39.2 °F 30.3 in West 6.8 mph 8.7 mph 78% 0 in 443.00 W/m2 unknown
12:14 46.4 °F 39.2 °F 30.3 in West 6.8 mph 9.3 mph 77% 0 in 443.00 W/m2 unknown
12:19 46.4 °F 39.2 °F 30.3 in West 6.2 mph 8.7 mph 77% 0 in 446.00 W/m2 unknown
12:24 46.4 °F 39.2 °F 30.3 in West 7.5 mph 9.3 mph 78% 0 in 355.00 W/m2 unknown
12:29 46.4 °F 39.2 °F 30.3 in West 6.8 mph 8.7 mph 77% 0 in 411.00 W/m2 unknown
12:34 48.2 °F 41 °F 30.3 in West 8.1 mph 9.9 mph 77% 0 in 415.00 W/m2 unknown
12:39 48.2 °F 41 °F 30.3 in West 7.5 mph 10.6 mph 75% 0 in 411.00 W/m2 unknown
12:44 48.2 °F 41 °F 30.3 in West 6.8 mph 9.9 mph 75% 0 in 415.00 W/m2 unknown
12:49 48.2 °F 41 °F 30.3 in West 6.8 mph 8.1 mph 74% 0 in 408.00 W/m2 unknown
12:54 50 °F 41 °F 30.3 in West 6.8 mph 9.3 mph 73% 0 in 404.00 W/m2 unknown
12:59 50 °F 41 °F 30.3 in West 6.8 mph 8.7 mph 74% 0 in 404.00 W/m2 unknown
13:04 50 °F 42.8 °F 30.3 in West 7.5 mph 9.3 mph 75% 0 in 401.00 W/m2 unknown
13:09 50 °F 42.8 °F 30.3 in West 6.2 mph 10.6 mph 74% 0 in 399.00 W/m2 unknown
13:14 50 °F 42.8 °F 30.3 in West 6.2 mph 9.9 mph 74% 0 in 394.00 W/m2 unknown
13:19 50 °F 42.8 °F 30.3 in West 7.5 mph 9.3 mph 74% 0 in 392.00 W/m2 unknown
13:24 50 °F 42.8 °F 30.3 in West 7.5 mph 9.3 mph 73% 0 in 388.00 W/m2 unknown
13:29 51.8 °F 42.8 °F 30.3 in WNW 6.8 mph 8.7 mph 72% 0 in 385.00 W/m2 unknown
13:34 51.8 °F 42.8 °F 30.3 in West 7.5 mph 9.3 mph 71% 0 in 378.00 W/m2 unknown
13:39 51.8 °F 42.8 °F 30.3 in West 6.2 mph 9.3 mph 71% 0 in 378.00 W/m2 unknown
13:44 51.8 °F 41 °F 30.3 in West 6.2 mph 9.3 mph 70% 0 in 369.00 W/m2 unknown
13:49 51.8 °F 42.8 °F 30.3 in West 7.5 mph 9.3 mph 70% 0 in 369.00 W/m2 unknown
13:54 51.8 °F 41 °F 30.3 in West 8.1 mph 11.8 mph 69% 0 in 364.00 W/m2 unknown
13:59 51.8 °F 41 °F 30.3 in West 7.5 mph 11.8 mph 69% 0 in 360.00 W/m2 unknown
14:04 51.8 °F 41 °F 30.3 in West 6.2 mph 11.8 mph 69% 0 in 357.00 W/m2 unknown
14:09 51.8 °F 42.8 °F 30.3 in West 6.2 mph 8.1 mph 69% 0 in 348.00 W/m2 unknown
14:14 51.8 °F 41 °F 30.3 in West 6.2 mph 8.1 mph 68% 0 in 343.00 W/m2 unknown
14:19 51.8 °F 41 °F 30.3 in West 8.1 mph 10.6 mph 65% 0 in 336.00 W/m2 unknown
14:24 51.8 °F 41 °F 30.3 in West 8.7 mph 10.6 mph 65% 0 in 330.00 W/m2 unknown
14:29 51.8 °F 41 °F 30.3 in West 8.1 mph 9.9 mph 64% 0 in 322.00 W/m2 unknown
14:34 51.8 °F 41 °F 30.3 in West 8.1 mph 11.8 mph 65% 0 in 311.00 W/m2 unknown
14:39 51.8 °F 41 °F 30.3 in West 8.1 mph 11.8 mph 65% 0 in 304.00 W/m2 unknown
14:44 51.8 °F 41 °F 30.3 in West 8.1 mph 11.8 mph 65% 0 in 297.00 W/m2 unknown
14:49 53.6 °F 41 °F 30.3 in West 6.8 mph 11.8 mph 66% 0 in 288.00 W/m2 unknown
14:54 53.6 °F 41 °F 30.3 in West 8.1 mph 10.6 mph 65% 0 in 281.00 W/m2 unknown
14:59 53.6 °F 41 °F 30.3 in West 8.1 mph 10.6 mph 64% 0 in 272.00 W/m2 unknown
15:04 53.6 °F 41 °F 30.3 in WNW 5.6 mph 9.9 mph 64% 0 in 264.00 W/m2 unknown
15:09 53.6 °F 41 °F 30.3 in West 6.2 mph 8.1 mph 65% 0 in 251.00 W/m2 unknown
15:14 53.6 °F 41 °F 30.3 in West 6.2 mph 8.1 mph 65% 0 in 243.00 W/m2 unknown
15:19 53.6 °F 41 °F 30.3 in West 7.5 mph 10.6 mph 64% 0 in 232.00 W/m2 unknown
15:24 53.6 °F 41 °F 30.3 in WNW 5.6 mph 9.9 mph 64% 0 in 221.00 W/m2 unknown
15:29 53.6 °F 41 °F 30.3 in West 5.6 mph 8.1 mph 65% 0 in 199.00 W/m2 unknown
15:34 51.8 °F 41 °F 30.3 in WNW 6.2 mph 8.7 mph 65% 0 in 193.00 W/m2 unknown
15:39 51.8 °F 41 °F 30.3 in West 6.8 mph 10.6 mph 67% 0 in 181.00 W/m2 unknown
15:44 51.8 °F 41 °F 30.3 in West 6.8 mph 9.9 mph 67% 0 in 171.00 W/m2 unknown
15:49 51.8 °F 41 °F 30.3 in West 6.2 mph 9.3 mph 66% 0 in 160.00 W/m2 unknown
15:54 51.8 °F 41 °F 30.3 in West 5 mph 8.7 mph 66% 0 in 146.00 W/m2 unknown
15:59 51.8 °F 41 °F 30.3 in West 5 mph 6.8 mph 68% 0 in 132.00 W/m2 unknown
16:04 51.8 °F 41 °F 30.2 in West 5 mph 6.8 mph 68% 0 in 109.00 W/m2 unknown
16:09 51.8 °F 41 °F 30.2 in West 4.3 mph 6.2 mph 69% 0 in 28.00 W/m2 unknown
16:14 51.8 °F 41 °F 30.2 in West 4.3 mph 6.2 mph 70% 0 in 26.00 W/m2 unknown
16:19 50 °F 41 °F 30.2 in West 4.3 mph 6.2 mph 70% 0 in 25.00 W/m2 unknown
16:24 50 °F 41 °F 30.2 in West 5 mph 6.2 mph 69% 0 in 23.00 W/m2 unknown
16:29 50 °F 41 °F 30.2 in WNW 6.2 mph 8.1 mph 69% 0 in 21.00 W/m2 unknown
16:34 50 °F 41 °F 30.2 in WNW 6.2 mph 8.1 mph 69% 0 in 19.00 W/m2 unknown
16:39 50 °F 41 °F 30.2 in WNW 6.2 mph 8.1 mph 69% 0 in 18.00 W/m2 unknown
16:44 50 °F 41 °F 30.2 in West 5.6 mph 8.1 mph 69% 0 in 16.00 W/m2 unknown
16:49 50 °F 39.2 °F 30.2 in West 5 mph 6.8 mph 69% 0 in 12.00 W/m2 unknown
16:54 50 °F 39.2 °F 30.2 in West 3.7 mph 6.8 mph 70% 0 in 11.00 W/m2 unknown
16:59 48.2 °F 39.2 °F 30.2 in West 3.7 mph 5 mph 73% 0 in 7.00 W/m2 unknown
17:04 46.4 °F 39.2 °F 30.2 in West 3.1 mph 5 mph 73% 0 in 5.00 W/m2 unknown
17:09 46.4 °F 39.2 °F 30.2 in West 3.1 mph 5 mph 74% 0 in 0.00 W/m2 unknown
17:14 46.4 °F 39.2 °F 30.2 in WSW 3.1 mph 3.7 mph 75% 0 in 0.00 W/m2 unknown
17:19 46.4 °F 37.4 °F 30.2 in WSW 3.7 mph 3.7 mph 75% 0 in 0.00 W/m2 unknown
17:24 46.4 °F 37.4 °F 30.2 in WSW 3.1 mph 3.7 mph 75% 0 in 0.00 W/m2 unknown
17:29 46.4 °F 37.4 °F 30.2 in WSW 3.7 mph 5 mph 75% 0 in 0.00 W/m2 unknown
17:34 44.6 °F 37.4 °F 30.2 in WSW 4.3 mph 5 mph 76% 0 in 0.00 W/m2 unknown
17:39 44.6 °F 37.4 °F 30.2 in West 5 mph 5 mph 77% 0 in 0.00 W/m2 unknown
17:44 42.8 °F 37.4 °F 30.2 in West 4.3 mph 5 mph 79% 0 in 0.00 W/m2 unknown
17:49 42.8 °F 35.6 °F 30.2 in WNW 5 mph 6.2 mph 80% 0 in 0.00 W/m2 unknown
17:54 42.8 °F 37.4 °F 30.2 in WNW 5 mph 6.2 mph 81% 0 in 0.00 W/m2 unknown
17:59 44.6 °F 37.4 °F 30.2 in West 6.8 mph 8.7 mph 80% 0 in 0.00 W/m2 unknown
18:04 44.6 °F 37.4 °F 30.2 in West 6.8 mph 9.3 mph 79% 0 in 0.00 W/m2 unknown
18:09 44.6 °F 37.4 °F 30.2 in West 6.2 mph 8.7 mph 76% 0 in 0.00 W/m2 unknown
18:14 44.6 °F 37.4 °F 30.2 in West 6.2 mph 9.3 mph 76% 0 in 0.00 W/m2 unknown
18:19 44.6 °F 37.4 °F 30.2 in West 6.2 mph 9.3 mph 77% 0 in 0.00 W/m2 unknown
18:24 44.6 °F 37.4 °F 30.2 in West 6.2 mph 8.7 mph 76% 0 in 0.00 W/m2 unknown
18:29 44.6 °F 37.4 °F 30.2 in West 5 mph 8.1 mph 75% 0 in 0.00 W/m2 unknown
18:34 44.6 °F 37.4 °F 30.2 in West 5 mph 6.8 mph 74% 0 in 0.00 W/m2 unknown
18:39 44.6 °F 37.4 °F 30.2 in West 5 mph 6.8 mph 74% 0 in 0.00 W/m2 unknown
18:44 44.6 °F 37.4 °F 30.2 in West 5 mph 6.8 mph 75% 0 in 0.00 W/m2 unknown
18:49 44.6 °F 37.4 °F 30.2 in NW 3.1 mph 6.8 mph 76% 0 in 0.00 W/m2 unknown
18:54 44.6 °F 37.4 °F 30.2 in NNE 1.2 mph 5 mph 76% 0 in 0.00 W/m2 unknown
18:59 42.8 °F 37.4 °F 30.2 in NNW 2.5 mph 3.1 mph 77% 0 in 0.00 W/m2 unknown
19:04 42.8 °F 35.6 °F 30.2 in West 3.1 mph 3.7 mph 79% 0 in 0.00 W/m2 unknown
19:09 41 °F 35.6 °F 30.2 in WSW 4.3 mph 5 mph 81% 0 in 0.00 W/m2 unknown
19:14 41 °F 35.6 °F 30.2 in SW 5.6 mph 6.8 mph 81% 0 in 0.00 W/m2 unknown
19:19 39.2 °F 35.6 °F 30.2 in SW 6.2 mph 6.8 mph 81% 0 in 0.00 W/m2 unknown
19:24 41 °F 35.6 °F 30.2 in SW 5 mph 6.8 mph 82% 0 in 0.00 W/m2 unknown
19:29 41 °F 35.6 °F 30.2 in WSW 3.1 mph 6.2 mph 82% 0 in 0.00 W/m2 unknown
19:34 41 °F 35.6 °F 30.2 in WSW 5 mph 6.2 mph 81% 0 in 0.00 W/m2 unknown
19:39 39.2 °F 33.8 °F 30.2 in WSW 5 mph 6.2 mph 82% 0 in 0.00 W/m2 unknown
19:44 39.2 °F 33.8 °F 30.2 in WSW 5 mph 6.2 mph 82% 0 in 0.00 W/m2 unknown
19:49 39.2 °F 33.8 °F 30.2 in WSW 5 mph 5 mph 83% 0 in 0.00 W/m2 unknown
19:54 39.2 °F 33.8 °F 30.2 in SW 3.1 mph 5 mph 83% 0 in 0.00 W/m2 unknown
19:59 39.2 °F 35.6 °F 30.2 in WSW 3.1 mph 3.7 mph 82% 0 in 0.00 W/m2 unknown
20:04 41 °F 35.6 °F 30.2 in West 2.5 mph 3.7 mph 81% 0 in 0.00 W/m2 unknown
20:09 41 °F 35.6 °F 30.2 in West 3.1 mph 3.7 mph 81% 0 in 0.00 W/m2 unknown
20:14 41 °F 35.6 °F 30.2 in West 3.7 mph 5 mph 80% 0 in 0.00 W/m2 unknown
20:19 41 °F 35.6 °F 30.2 in West 3.7 mph 5 mph 80% 0 in 0.00 W/m2 unknown
20:24 39.2 °F 33.8 °F 30.2 in West 3.7 mph 5 mph 81% 0 in 0.00 W/m2 unknown
20:29 39.2 °F 33.8 °F 30.2 in WSW 4.3 mph 5 mph 83% 0 in 0.00 W/m2 unknown
20:34 37.4 °F 33.8 °F 30.2 in West 5 mph 5 mph 83% 0 in 0.00 W/m2 unknown
20:39 39.2 °F 33.8 °F 30.2 in West 3.1 mph 5 mph 83% 0 in 0.00 W/m2 unknown
20:44 39.2 °F 33.8 °F 30.2 in West 3.1 mph 5 mph 82% 0 in 0.00 W/m2 unknown
20:49 39.2 °F 33.8 °F 30.2 in West 3.1 mph 3.7 mph 82% 0 in 0.00 W/m2 unknown
20:54 37.4 °F 33.8 °F 30.2 in West 3.7 mph 5 mph 83% 0 in 0.00 W/m2 unknown
20:59 37.4 °F 32 °F 30.2 in West 3.7 mph 5 mph 84% 0 in 0.00 W/m2 unknown
21:04 37.4 °F 32 °F 30.2 in WSW 4.3 mph 5 mph 85% 0 in 0.00 W/m2 unknown
21:09 37.4 °F 32 °F 30.2 in WSW 4.3 mph 5 mph 85% 0 in 0.00 W/m2 unknown
21:14 37.4 °F 32 °F 30.2 in WSW 4.3 mph 5 mph 84% 0 in 0.00 W/m2 unknown
21:19 37.4 °F 32 °F 30.3 in WSW 3.1 mph 5 mph 83% 0 in 0.00 W/m2 unknown
21:24 37.4 °F 32 °F 30.3 in WSW 4.3 mph 6.2 mph 83% 0 in 0.00 W/m2 unknown
21:29 37.4 °F 32 °F 30.3 in West 5 mph 6.8 mph 82% 0 in 0.00 W/m2 unknown
21:34 37.4 °F 32 °F 30.3 in West 5 mph 6.8 mph 81% 0 in 0.00 W/m2 unknown
21:39 37.4 °F 32 °F 30.3 in WSW 5 mph 6.2 mph 81% 0 in 0.00 W/m2 unknown
21:44 37.4 °F 32 °F 30.3 in West 5 mph 6.2 mph 81% 0 in 0.00 W/m2 unknown
21:49 37.4 °F 32 °F 30.3 in WSW 4.3 mph 5 mph 81% 0 in 0.00 W/m2 unknown
21:54 37.4 °F 32 °F 30.3 in West 4.3 mph 5 mph 81% 0 in 0.00 W/m2 unknown
21:59 37.4 °F 32 °F 30.3 in West 3.7 mph 5 mph 81% 0 in 0.00 W/m2 unknown
22:04 37.4 °F 32 °F 30.3 in WSW 3.7 mph 5 mph 81% 0 in 0.00 W/m2 unknown
22:09 37.4 °F 32 °F 30.3 in WSW 3.7 mph 5 mph 82% 0 in 0.00 W/m2 unknown
22:14 37.4 °F 32 °F 30.3 in WSW 3.7 mph 5 mph 82% 0 in 0.00 W/m2 unknown
22:19 37.4 °F 32 °F 30.3 in WSW 3.1 mph 5 mph 80% 0 in 0.00 W/m2 unknown
22:24 37.4 °F 32 °F 30.3 in WSW 3.7 mph 3.7 mph 80% 0 in 0.00 W/m2 unknown
22:29 37.4 °F 32 °F 30.3 in WSW 3.7 mph 3.7 mph 80% 0 in 0.00 W/m2 unknown
22:34 37.4 °F 32 °F 30.3 in WSW 3.1 mph 3.7 mph 80% 0 in 0.00 W/m2 unknown
22:39 37.4 °F 32 °F 30.3 in WSW 2.5 mph 3.7 mph 80% 0 in 0.00 W/m2 unknown
22:44 37.4 °F 32 °F 30.3 in West 2.5 mph 3.7 mph 81% 0 in 0.00 W/m2 unknown
22:49 37.4 °F 32 °F 30.3 in WNW 3.7 mph 3.7 mph 82% 0 in 0.00 W/m2 unknown
22:54 37.4 °F 32 °F 30.3 in NW 3.7 mph 3.7 mph 83% 0 in 0.00 W/m2 unknown
22:59 37.4 °F 32 °F 30.3 in NNE 2.5 mph 3.7 mph 83% 0 in 0.00 W/m2 unknown
23:04 37.4 °F 32 °F 30.3 in ENE 3.7 mph 6.8 mph 82% 0 in 0.00 W/m2 unknown
23:09 37.4 °F 32 °F 30.3 in ENE 3.7 mph 6.8 mph 83% 0 in 0.00 W/m2 unknown
23:14 37.4 °F 32 °F 30.3 in ENE 4.3 mph 6.8 mph 83% 0 in 0.00 W/m2 unknown
23:19 37.4 °F 32 °F 30.3 in ENE 5.6 mph 6.8 mph 83% 0 in 0.00 W/m2 unknown
23:24 37.4 °F 32 °F 30.3 in ENE 5 mph 6.8 mph 83% 0 in 0.00 W/m2 unknown
23:29 37.4 °F 32 °F 30.3 in East 5 mph 6.2 mph 83% 0 in 0.00 W/m2 unknown
23:34 37.4 °F 32 °F 30.3 in ENE 3.7 mph 5 mph 83% 0 in 0.00 W/m2 unknown
23:39 37.4 °F 32 °F 30.3 in East 3.7 mph 5 mph 83% 0 in 0.00 W/m2 unknown
23:44 37.4 °F 32 °F 30.3 in ENE 3.7 mph 5 mph 84% 0 in 0.00 W/m2 unknown
23:49 37.4 °F 32 °F 30.3 in East 2.5 mph 3.7 mph 84% 0 in 0.00 W/m2 unknown
23:54 35.6 °F 32 °F 30.3 in East 1.9 mph 3.7 mph 85% 0 in 0.00 W/m2 unknown
23:59 35.6 °F 32 °F 30.3 in ENE 5 mph 6.8 mph 85% 0 in 0.00 W/m2 unknown
Stazione Meteorologica MeteoMincio Rivalta s/M (MN)
Con i complimenti di Weather Underground - 4 mb



METEO PILLOLE
La più grave siccità negli USA
Grandi pianure:
Dal 1930 al 1938 l'erosione favorita dalle pratiche agricole, i forti venti e l'assenza di precipitazioni convertirono in polvere circa 200.000 Km quadrati di terreno coltivabile.
Share

Non seguire questo link o sarai bannato dal sito!